GW0496 Weather Reports


time (UTC)temp
C
wind
direction
speed
KPH
gust
KPH
rain 1hr
cm
rain 24hr
cm
rain mn
cm
humidity
%
barometer
mb
20260507160954 15 277 0.0 0.0 0.00 0.56 0.56 70 1007.2
20260507160449 15 291 0.0 0.0 0.00 0.56 0.56 73 1007.1
20260507155945 15 306 0.0 0.0 0.00 0.56 0.56 73 1007.3
20260507155441 15 246 0.0 0.0 0.00 0.56 0.56 70 1007.5
20260507154939 14 269 0.0 0.0 0.00 0.56 0.56 72 1007.5
20260507154435 14 302 0.0 0.0 0.00 0.56 0.56 74 1007.5
20260507153932 13 346 0.0 0.0 0.00 0.56 0.56 78 1007.4
20260507153429 13 312 0.0 0.0 0.00 0.56 0.56 80 1007.4
20260507152925 13 258 0.0 0.0 0.00 0.56 0.56 74 1007.6
20260507152422 13 317 0.0 0.0 0.00 0.56 0.56 76 1007.6
20260507151917 13 290 0.0 0.0 0.00 0.56 0.56 75 1007.7
20260507151415 13 296 0.0 0.0 0.00 0.56 0.56 76 1007.8
20260507150911 13 296 0.0 0.0 0.00 0.56 0.56 77 1007.6
20260507150408 12 293 0.0 0.0 0.00 0.56 0.56 79 1007.6
20260507145904 12 341 0.0 0.0 0.00 0.56 0.56 80 1007.5
20260507145400 12 297 0.0 0.0 0.00 0.56 0.56 81 1007.5
20260507144857 12 343 0.0 0.0 0.00 0.56 0.56 83 1007.8
20260507144355 12 303 0.0 0.0 0.00 0.56 0.56 86 1007.6
20260507143851 11 317 0.0 0.0 0.00 0.56 0.56 85 1007.6
20260507143348 11 265 0.0 0.0 0.00 0.56 0.56 85 1007.7
20260507142845 11 358 0.0 0.0 0.00 0.56 0.56 86 1007.8
20260507142341 11 263 0.0 0.0 0.00 0.56 0.56 85 1007.9
20260507141838 11 73 0.0 0.0 0.00 0.56 0.56 83 1007.9
20260507141335 11 313 0.0 0.0 0.00 0.56 0.56 85 1008.0
20260507140831 11 351 0.0 0.0 0.18 0.56 0.56 87 1007.6
20260507140328 10 289 0.0 0.0 0.18 0.56 0.56 84 1007.8
20260507135826 10 317 0.0 0.0 0.00 0.53 0.53 87 1007.8
20260507135322 10 308 0.0 0.0 0.00 0.53 0.53 89 1007.6
20260507134820 10 312 0.0 0.0 0.00 0.53 0.53 90 1007.7
20260507134316 10 324 0.0 0.0 0.00 0.53 0.53 89 1007.6
20260507133812 10 313 0.0 0.0 0.00 0.53 0.53 88 1007.8
20260507133308 10 317 0.0 0.0 0.00 0.53 0.53 89 1007.7
20260507132806 10 316 0.0 0.0 0.00 0.53 0.53 90 1007.5
20260507132306 10 315 0.0 0.0 0.00 0.53 0.53 91 1007.7
20260507131800 9 312 0.0 0.0 0.00 0.53 0.53 91 1007.7
20260507131256 9 315 0.0 0.0 0.00 0.53 0.53 93 1007.2
20260507130753 9 321 0.0 0.0 0.00 0.53 0.53 92 1007.2
20260507130251 8 316 0.0 0.0 0.00 0.53 0.53 93 1007.4
20260507125749 8 320 0.0 0.0 0.00 0.53 0.53 93 1007.4
20260507125246 8 9 0.0 0.0 0.00 0.53 0.53 92 1007.5
20260507124743 8 289 0.0 0.0 0.13 0.53 0.53 92 1007.9
20260507124240 8 318 0.0 0.0 0.13 0.53 0.53 93 1008.0
20260507123738 8 348 0.0 0.0 0.00 0.51 0.51 92 1008.0
20260507123236 8 312 0.0 0.0 0.00 0.51 0.51 92 1007.9
20260507122731 8 62 0.0 0.0 0.00 0.51 0.51 90 1008.1
20260507122227 8 313 0.0 0.0 0.00 0.51 0.51 92 1008.0
20260507121722 8 315 0.0 0.0 0.00 0.51 0.51 93 1007.8
20260507121218 8 324 0.0 0.0 0.18 0.51 0.51 93 1007.6
20260507120715 8 313 0.0 0.0 0.18 0.51 0.51 94 1007.3
20260507120212 8 19 0.0 1.6 0.00 0.48 0.48 92 1007.5
20260507115708 8 27 0.0 0.0 0.00 0.48 0.48 92 1007.8
20260507115204 8 318 0.0 0.0 0.00 0.48 0.48 92 1007.8
20260507114659 9 20 0.0 0.0 0.00 0.48 0.48 92 1007.6
20260507114157 9 356 0.0 0.0 0.00 0.48 0.48 92 1007.6
20260507113654 10 15 0.0 0.0 0.00 0.48 0.48 94 1007.2
20260507113151 10 319 0.0 0.0 0.00 0.48 0.48 95 1007.4
20260507112649 10 6 0.0 0.0 0.00 0.48 0.48 95 1007.8
20260507112145 10 312 0.0 0.0 0.00 0.48 0.48 95 1007.7
20260507111643 10 308 0.0 0.0 0.00 0.48 0.48 95 1007.5
20260507111139 10 309 0.0 0.0 0.00 0.48 0.48 96 1007.4
20260507110636 10 264 0.0 0.0 0.00 0.48 0.48 95 1006.9
20260507110133 10 314 0.0 0.0 0.18 0.48 0.48 95 1006.5
20260507105629 10 319 0.0 0.0 0.18 0.48 0.48 95 1006.7
20260507105125 10 320 0.0 0.0 0.00 0.46 0.46 95 1006.7
20260507104623 10 49 0.0 0.0 0.13 0.46 0.46 95 1006.8
20260507104119 10 337 0.0 0.0 0.13 0.46 0.46 94 1006.7
20260507103615 10 335 0.0 0.0 0.00 0.43 0.43 94 1006.5
20260507103112 10 12 3.2 9.7 0.00 0.43 0.43 94 1006.6
20260507102609 10 356 0.0 0.0 0.00 0.43 0.43 95 1006.6
20260507102105 10 355 0.0 1.6 0.00 0.43 0.43 96 1006.7
20260507101601 10 337 0.0 0.0 0.00 0.43 0.43 97 1006.7
20260507101057 10 301 0.0 0.0 0.00 0.43 0.43 97 1006.4
20260507100554 11 309 1.6 3.2 0.00 0.43 0.43 98 1006.1
20260507100053 11 283 0.0 0.0 0.18 0.43 0.43 98 1005.9
20260507095550 11 323 0.0 0.0 0.18 0.43 0.43 98 1005.6
20260507095047 11 41 0.0 0.0 0.13 0.41 0.41 98 1005.8
20260507094542 11 321 0.0 0.0 0.13 0.41 0.41 98 1006.0
20260507094039 11 21 0.0 0.0 0.43 0.41 0.41 98 1005.6
20260507093537 11 309 0.0 0.0 0.48 0.38 0.38 99 1006.0
20260507093036 11 320 0.0 0.0 0.61 0.33 0.33 99 1005.9
20260507092532 11 291 0.0 0.0 1.19 0.30 0.30 99 1005.9
20260507092029 11 317 0.0 0.0 1.07 0.25 0.25 99 1006.0
20260507091525 11 282 0.0 0.0 0.18 0.10 0.10 99 1006.3
20260507091021 10 15 0.0 0.0 0.13 0.08 0.08 99 1005.5
20260507090517 10 318 0.0 0.0 0.13 0.08 0.08 99 1005.5
20260507090015 10 328 0.0 0.0 0.00 0.05 0.05 99 1005.9
20260507085511 10 293 0.0 0.0 0.18 0.05 0.05 99 1005.8
20260507085008 10 283 0.0 0.0 0.18 0.05 0.05 99 1006.2
20260507084505 10 329 0.0 0.0 0.00 0.03 0.03 99 1006.1
20260507084002 10 299 0.0 0.0 0.13 0.03 0.03 99 1006.3
20260507083458 10 319 0.0 0.0 0.13 0.03 0.03 99 1006.4
20260507082955 10 279 0.0 0.0 0.00 0.00 0.00 99 1006.9
20260507082451 10 265 0.0 0.0 0.00 0.00 0.00 99 1006.6
20260507081947 10 308 0.0 0.0 0.00 0.00 0.00 99 1006.0
20260507081443 10 238 3.2 8.0 0.00 0.00 0.00 99 1005.7
20260507080941 10 314 0.0 0.0 0.00 0.00 0.00 99 1005.4
20260507080436 10 300 0.0 0.0 0.00 0.00 0.00 99 1005.3
20260507075932 10 265 0.0 0.0 0.00 0.00 0.00 98 1005.1
20260507075428 10 311 0.0 0.0 0.00 0.00 0.00 99 1005.3
20260507074925 10 311 0.0 0.0 0.00 0.00 0.00 98 1005.4
20260507074422 10 267 0.0 0.0 0.00 0.00 0.00 98 1005.7
20260507073920 10 312 0.0 0.0 0.00 0.00 0.00 98 1005.5
20260507073416 10 296 0.0 0.0 0.00 0.00 0.00 98 1005.4
20260507072913 10 304 0.0 0.0 0.00 0.00 0.00 98 1005.5
20260507072410 10 295 0.0 0.0 0.00 0.00 0.00 98 1005.7
20260507071908 10 308 0.0 0.0 0.00 0.00 0.00 98 1005.6
20260507071405 10 292 0.0 0.0 0.00 0.00 0.00 98 1005.5
20260507070901 10 279 0.0 0.0 0.00 0.00 0.00 98 1005.7
20260507070359 10 267 0.0 1.6 0.00 0.00 0.00 98 1005.5
20260507065855 10 314 0.0 0.0 0.00 0.00 0.00 98 1006.1
20260507065352 11 313 0.0 0.0 0.00 0.00 0.00 98 1006.1
20260507064849 11 310 0.0 0.0 0.00 0.00 0.00 98 1006.0
20260507064348 11 262 0.0 0.0 0.00 0.00 0.00 98 1005.7
20260507063845 11 312 0.0 0.0 0.00 0.00 0.00 98 1005.7
20260507063342 11 312 0.0 0.0 0.00 0.00 0.00 98 1005.9
20260507062839 11 308 0.0 0.0 0.00 0.00 0.00 98 1006.0
20260507062336 11 279 0.0 0.0 0.00 0.00 0.00 98 1005.9
20260507061834 11 315 0.0 0.0 0.00 0.00 0.00 98 1006.1
20260507061331 11 309 0.0 0.0 0.00 0.00 0.00 98 1006.0
20260507060830 11 311 0.0 0.0 0.00 0.00 0.00 98 1006.1
20260507060326 11 297 0.0 0.0 0.00 0.00 0.00 98 1006.3
20260507055823 11 311 0.0 0.0 0.00 0.00 0.00 98 1006.4
20260507055318 11 318 0.0 0.0 0.00 0.00 0.00 98 1006.3
20260507054815 11 297 0.0 0.0 0.00 0.00 0.00 98 1006.4
20260507054311 11 315 0.0 0.0 0.00 0.00 0.00 98 1006.5
20260507053808 11 314 0.0 0.0 0.00 0.00 0.00 98 1006.4
20260507053306 11 314 0.0 0.0 0.00 0.00 0.00 98 1006.4
20260507052805 11 264 1.6 8.0 0.00 0.00 0.00 98 1006.7
20260507052300 11 286 0.0 0.0 0.00 0.00 0.00 98 1006.6
20260507051759 11 280 6.4 11.3 0.00 0.00 0.00 98 1006.6
20260507051256 11 278 3.2 8.0 0.00 0.00 0.00 98 1006.9
20260507050752 11 262 0.0 0.0 0.00 0.00 0.00 98 1007.0
20260507050249 11 276 0.0 0.0 0.00 0.00 0.00 98 1007.0
20260507045746 11 252 1.6 4.8 0.00 0.00 0.00 98 1007.1
20260507045242 11 286 1.6 8.0 0.00 0.00 0.00 98 1006.9
20260507044740 11 267 0.0 0.0 0.00 0.00 0.00 98 1007.0
20260507044236 11 303 0.0 0.0 0.00 0.00 0.00 98 1006.9
20260507043732 11 287 0.0 0.0 0.00 0.00 0.00 98 1006.9
20260507043229 11 277 0.0 0.0 0.00 0.00 0.00 98 1006.9
20260507042725 11 309 1.6 4.8 0.00 0.00 0.00 97 1006.9
20260507042220 11 301 0.0 0.0 0.00 0.00 0.00 97 1007.1
20260507041718 11 274 0.0 1.6 0.00 0.00 0.00 97 1006.8
20260507041214 11 239 4.8 9.7 0.00 0.00 0.00 97 1007.1
20260507040712 12 253 9.7 22.5 0.00 0.00 0.00 97 1007.4
20260507040207 12 297 3.2 4.8 0.00 0.00 0.00 97 1007.4
20260507035703 12 223 11.3 16.1 0.00 0.43 0.43 97 1007.5
20260507035159 12 273 0.0 1.6 0.00 0.43 0.43 97 1007.2
20260507034656 12 275 3.2 4.8 0.00 0.43 0.43 96 1007.3
20260507034154 12 283 0.0 3.2 0.00 0.43 0.43 96 1007.3
20260507033652 12 280 1.6 3.2 0.00 0.43 0.43 96 1007.2
20260507033149 12 277 4.8 9.7 0.00 0.43 0.43 96 1007.4
20260507032646 12 280 0.0 1.6 0.00 0.43 0.43 96 1007.0
20260507032142 12 248 4.8 12.9 0.00 0.43 0.43 96 1007.0
20260507031639 12 308 9.7 14.5 0.00 0.43 0.43 96 1007.0
20260507031135 12 292 0.0 0.0 0.00 0.43 0.43 96 1007.1
20260507030632 12 268 4.8 12.9 0.00 0.43 0.43 96 1007.1
20260507030131 12 259 4.8 14.5 0.00 0.43 0.43 96 1007.1
20260507025627 12 249 0.0 3.2 0.00 0.43 0.43 96 1006.9
20260507025124 12 347 3.2 8.0 0.00 0.43 0.43 96 1007.0
20260507024622 12 236 6.4 17.7 0.00 0.43 0.43 96 1007.2
20260507024119 12 273 3.2 9.7 0.00 0.43 0.43 96 1007.3
20260507023614 12 279 11.3 14.5 0.00 0.43 0.43 95 1007.3
20260507023112 12 297 0.0 0.0 0.00 0.43 0.43 95 1007.6
20260507022609 12 265 1.6 3.2 0.00 0.43 0.43 95 1007.5
20260507022104 12 252 3.2 8.0 0.00 0.43 0.43 95 1007.6
20260507021601 12 245 0.0 0.0 0.00 0.43 0.43 95 1007.7
20260507021057 12 259 0.0 0.0 0.00 0.43 0.43 95 1007.5
20260507020555 12 303 0.0 0.0 0.00 0.43 0.43 95 1007.9
20260507020051 12 337 0.0 0.0 0.00 0.43 0.43 95 1007.7
20260507015549 12 304 0.0 0.0 0.00 0.43 0.43 95 1007.5
20260507015046 12 287 1.6 8.0 0.00 0.43 0.43 95 1007.7
20260507014543 13 240 3.2 11.3 0.00 0.43 0.43 95 1007.7
20260507014033 13 276 1.6 8.0 0.00 0.43 0.43 94 1007.8
20260507013530 13 302 0.0 1.6 0.00 0.43 0.43 94 1007.7
20260507013027 13 297 1.6 4.8 0.00 0.43 0.43 94 1007.8
20260507012524 13 270 14.5 20.9 0.00 0.43 0.43 94 1007.7
20260507012020 13 25 14.5 24.1 0.00 0.43 0.43 94 1007.6
20260507011518 13 235 11.3 24.1 0.00 0.43 0.43 94 1007.6
20260507011014 13 241 9.7 14.5 0.00 0.43 0.43 94 1007.7
20260507010508 13 274 6.4 14.5 0.00 0.43 0.43 94 1008.0
20260507010005 13 235 3.2 9.7 0.00 0.43 0.43 94 1007.7
20260507005503 13 285 3.2 11.3 0.00 0.43 0.43 95 1007.7
20260507004959 13 272 0.0 1.6 0.00 0.43 0.43 95 1007.7
20260507004456 13 217 0.0 0.0 0.00 0.43 0.43 95 1007.8
20260507003954 13 192 8.0 17.7 0.00 0.43 0.43 95 1007.7
20260507003448 13 268 3.2 12.9 0.00 0.43 0.43 96 1007.6
20260507002943 13 315 0.0 0.0 0.18 0.43 0.43 96 1008.0
20260507002440 13 296 0.0 4.8 0.30 0.43 0.43 96 1007.7
20260507001937 13 323 0.0 0.0 0.13 0.41 0.41 96 1007.6
20260507001434 13 296 8.0 11.3 0.00 0.38 0.38 95 1007.8
20260507000932 13 259 0.0 0.0 0.48 0.38 0.38 95 1007.7
20260507000427 13 299 0.0 0.0 0.79 0.38 0.38 95 1007.8
20260506235922 13 282 0.0 0.0 0.30 0.30 0.30 95 1007.8
20260506235420 13 345 0.0 0.0 0.00 0.25 0.25 94 1007.7
20260506234910 13 283 0.0 0.0 0.00 0.25 0.25 94 1007.7
20260506234408 13 304 0.0 0.0 0.18 0.25 0.25 95 1007.9
20260506233906 13 229 0.0 0.0 0.18 0.25 0.25 95 1007.4
20260506233401 13 293 0.0 0.0 0.13 0.23 0.23 95 1007.8
20260506232858 13 223 0.0 0.0 0.13 0.23 0.23 95 1007.7
20260506232354 13 310 0.0 0.0 0.18 0.20 0.20 94 1007.6
20260506231850 13 223 0.0 0.0 0.30 0.20 0.20 94 1007.7
20260506231348 13 285 1.6 3.2 0.30 0.18 0.18 94 1008.0
20260506230846 13 273 1.6 4.8 0.30 0.15 0.15 94 1008.0
20260506230342 13 249 0.0 0.0 0.13 0.13 0.13 94 1008.2
20260506225838 13 257 0.0 0.0 0.18 0.10 0.10 94 1008.2
20260506225336 13 191 0.0 0.0 0.30 0.10 0.10 93 1008.3
20260506224833 13 194 0.0 1.6 0.13 0.08 0.08 92 1008.2
20260506224330 13 268 3.2 9.7 0.00 0.05 0.05 92 1008.5
20260506223826 13 282 1.6 4.8 0.18 0.05 0.05 92 1008.5
20260506223321 13 259 0.0 0.0 0.30 0.05 0.05 91 1008.4
20260506222819 14 224 0.0 0.0 0.13 0.03 0.03 89 1008.3
20260506222314 14 251 0.0 0.0 0.00 0.00 0.00 88 1008.3
20260506221813 14 245 3.2 9.7 0.00 0.00 0.00 86 1008.5
20260506221310 14 247 0.0 1.6 0.00 0.00 0.00 86 1008.3
20260506220807 14 257 0.0 3.2 0.00 0.00 0.00 86 1008.3
20260506220302 14 284 0.0 0.0 0.00 0.00 0.00 86 1008.2
20260506215759 15 124 1.6 11.3 0.00 0.00 0.00 86 1008.3
20260506215255 15 246 0.0 0.0 0.00 0.00 0.00 83 1008.4
20260506214751 15 3 0.0 0.0 0.00 0.00 0.00 82 1008.3
20260506214248 15 209 0.0 0.0 0.00 0.00 0.00 81 1008.3
20260506213746 15 319 0.0 1.6 0.00 0.00 0.00 82 1008.5
20260506213243 15 235 0.0 0.0 0.00 0.00 0.00 82 1008.4
20260506212740 15 275 0.0 0.0 0.00 0.00 0.00 83 1008.6
20260506212236 15 296 0.0 1.6 0.00 0.00 0.00 83 1008.8
20260506211731 15 294 0.0 0.0 0.00 0.00 0.00 83 1008.7
20260506211228 15 327 0.0 0.0 0.00 0.00 0.00 83 1008.5
20260506210725 15 1 0.0 3.2 0.00 0.00 0.00 81 1008.8
20260506210222 15 281 1.6 4.8 0.00 0.00 0.00 79 1008.6
20260506205719 15 304 0.0 0.0 0.00 0.00 0.00 79 1009.0
20260506205214 15 317 0.0 0.0 0.00 0.00 0.00 80 1008.4
20260506204712 15 347 1.6 4.8 0.00 0.00 0.00 79 1008.6
20260506204209 15 318 0.0 0.0 0.00 0.00 0.00 79 1008.8
20260506203707 15 319 0.0 0.0 0.00 0.00 0.00 80 1008.8
20260506203204 15 177 3.2 11.3 0.00 0.00 0.00 80 1009.0
20260506202702 15 232 0.0 0.0 0.00 0.00 0.00 78 1009.0
20260506202157 15 193 0.0 0.0 0.00 0.00 0.00 78 1009.1
20260506201654 15 237 0.0 0.0 0.00 0.00 0.00 78 1008.8
20260506201150 15 230 0.0 0.0 0.00 0.00 0.00 78 1009.1
20260506200648 15 287 0.0 0.0 0.00 0.00 0.00 77 1009.0
20260506200144 15 261 0.0 0.0 0.00 0.00 0.00 77 1009.4
20260506195641 15 291 0.0 0.0 0.00 0.00 0.00 77 1009.3
20260506195137 15 299 0.0 0.0 0.00 0.00 0.00 76 1009.3
20260506194635 16 302 0.0 0.0 0.00 0.00 0.00 76 1009.2
20260506194131 16 311 0.0 0.0 0.00 0.00 0.00 76 1009.4
20260506193629 15 310 0.0 0.0 0.00 0.00 0.00 77 1009.7
20260506193126 15 298 1.6 3.2 0.00 0.00 0.00 77 1009.5
20260506192622 15 312 0.0 0.0 0.00 0.00 0.00 77 1009.6
20260506192118 15 343 0.0 1.6 0.00 0.00 0.00 77 1009.5
20260506191615 15 279 0.0 0.0 0.00 0.00 0.00 77 1009.5
20260506191111 15 86 0.0 0.0 0.00 0.00 0.00 77 1009.7
20260506190609 15 332 0.0 1.6 0.00 0.00 0.00 77 1009.5
20260506190106 15 162 0.0 0.0 0.00 0.00 0.00 77 1009.7
20260506185603 15 322 0.0 0.0 0.00 0.00 0.00 76 1009.4
20260506185059 16 266 0.0 3.2 0.00 0.00 0.00 76 1009.6
20260506184556 16 305 0.0 1.6 0.00 0.00 0.00 75 1009.8
20260506184054 16 290 0.0 0.0 0.00 0.00 0.00 74 1009.8
20260506183549 16 255 0.0 0.0 0.00 0.00 0.00 75 1010.1
20260506183046 16 250 3.2 4.8 0.00 0.00 0.00 74 1010.2
20260506182544 16 302 0.0 0.0 0.00 0.00 0.00 75 1010.2
20260506182041 16 262 0.0 3.2 0.00 0.00 0.00 74 1010.2
20260506181539 16 308 0.0 1.6 0.00 0.00 0.00 74 1010.3
20260506181035 16 232 0.0 1.6 0.00 0.00 0.00 75 1010.5
20260506180532 16 284 0.0 1.6 0.00 0.00 0.00 75 1010.6
20260506180029 16 259 0.0 0.0 0.00 0.00 0.00 74 1010.8
20260506175525 16 193 0.0 1.6 0.00 0.00 0.00 74 1010.8
20260506175021 17 227 3.2 8.0 0.00 0.00 0.00 73 1010.8
20260506174520 17 258 0.0 3.2 0.00 0.00 0.00 71 1010.8
20260506174016 17 244 0.0 0.0 0.00 0.00 0.00 70 1010.9
20260506173514 17 251 0.0 1.6 0.00 0.00 0.00 71 1010.8
20260506173010 17 288 3.2 12.9 0.00 0.00 0.00 70 1011.0
20260506172508 18 309 1.6 3.2 0.00 0.00 0.00 69 1010.6
20260506172004 18 292 0.0 0.0 0.00 0.00 0.00 70 1010.8
20260506171501 18 294 0.0 0.0 0.00 0.00 0.00 69 1010.8
20260506170959 18 318 0.0 0.0 0.00 0.00 0.00 68 1010.9
20260506170455 18 299 0.0 1.6 0.00 0.00 0.00 69 1011.3
20260506165948 17 288 3.2 4.8 0.00 0.00 0.00 70 1011.6
20260506165447 17 336 4.8 12.9 0.00 0.00 0.00 72 1011.1
20260506164942 17 236 3.2 9.7 0.00 0.00 0.00 71 1011.4
20260506164439 17 197 0.0 1.6 0.00 0.00 0.00 70 1011.4
20260506163937 17 287 0.0 3.2 0.00 0.00 0.00 71 1011.2
20260506163431 17 315 0.0 1.6 0.00 0.00 0.00 71 1011.4
20260506162926 17 291 1.6 4.8 0.00 0.00 0.00 71 1011.8
20260506162424 18 279 8.0 17.7 0.00 0.00 0.00 70 1011.7
20260506161921 18 68 4.8 16.1 0.00 0.00 0.00 69 1011.8
20260506161420 18 267 0.0 0.0 0.00 0.00 0.00 70 1011.6